Content
SEND FEEDBACK

Daily
Averages
Monthly
Summary
Mexico

COZUMEL, QUINTANA ROO


Home > North America > Mexico > Quintana Roo
Elevation: 15 feet     Latitude: 20 31N     Longitude: 086 56W

WEATHER
 
SELECT A DAY
Number of Records: 127,434;   Date Range: 1/1/95 - 10/29/14
 
SHARE

PRINT THIS DATA

[ ← Previous Day ]
WEATHER ALMANAC - MAY 15, 2014
[ Next Day → ]
[ °C ]   °F
Weather ElementAverageHighLow
Temperature75.9 °F82.4 °F (11:40 am)71.6 °F (7:50 pm)
Dewpoint72.9 °F73.4 °F (1:53 am)71.6 °F (11:40 am)
Humidity91.3 %100 % (1:53 am)70 % (11:40 am)
Barometer30.00 in30.08 in (9:51 pm)29.96 in (4:43 am)
Wind Speed8.3 mph13.8 mph (9:43 am)
Weather ElementAverage
Visibility7.2 mi
Wind DirectionWSW (247.7 °)

Weather ElementTotal
Precipitation---
Cooling Degree Days12 (Base 65)
Growing Degree Days27 (Base 50)
Averaged from 22 records on May 15, 2014
WEATHER CONDITIONS BREAKOUT
WIND DIRECTION BREAKOUT
WEATHER BY HOUR - MAY 15, 2014
[ °C ]   °F
Local TimeTemperatureDewpointHumidityBarometerVisibilityWind DirectionWind SpeedGust SpeedPrecipitationEventsConditions
1:53 AM73.4 °F73.4 °F100 %29.98 in7.0 miNorth (350°)4.6 mphMostly Cloudy
2:49 AM73.4 °F73.4 °F100 %29.97 in7.0 miNorth (360°)5.8 mphMostly Cloudy
3:43 AM73.4 °F73.4 °F100 %29.98 in7.0 miNorth (10°)3.5 mphMostly Cloudy
4:43 AM73.4 °F73.4 °F100 %29.96 in7.0 miCalmScattered Clouds
5:43 AM73.4 °F73.4 °F100 %29.97 in7.0 miNorth (360°)3.5 mphScattered Clouds
6:47 AM73.4 °F73.4 °F100 %29.97 in7.0 miCalmMostly Cloudy
7:42 AM75.2 °F73.4 °F94 %30.00 in8.0 miNorth (360°)4.6 mphMostly Cloudy
8:41 AM75.2 °F73.4 °F94 %30.01 in8.0 miNorth (350°)8.1 mphMostly Cloudy
9:43 AM80.6 °F73.4 °F79 %30.05 in8.0 miNorth (360°)13.8 mphMostly Cloudy
10:43 AM80.6 °F73.4 °F79 %30.02 in8.0 miNorth (360°)6.9 mphMostly Cloudy
11:40 AM82.4 °F71.6 °F70 %30.02 in8.0 miNNE (20°)8.1 mphMostly Cloudy
12:50 PM82.4 °F71.6 °F70 %30.00 in8.0 miNNE (30°)8.1 mphMostly Cloudy
2:49 PM77.0 °F71.6 °F83 %29.99 in8.0 miNorth (360°)11.5 mphMostly Cloudy
3:48 PM80.6 °F73.4 °F79 %29.99 in8.0 miNNW (340°)11.5 mphMostly Cloudy
4:47 PM78.8 °F73.4 °F83 %29.96 in8.0 miNorth (10°)11.5 mphMostly Cloudy
5:45 PM75.2 °F71.6 °F89 %29.98 in7.0 miNorth (360°)13.8 mphMostly Cloudy
6:42 PM75.2 °F73.4 °F94 %29.98 in6.0 miNorth (360°)11.5 mphOvercast
7:50 PM71.6 °F71.6 °F100 %30.00 in5.0 miNorth (360°)11.5 mphRainLight Rain
8:46 PM73.4 °F73.4 °F100 %30.02 in6.0 miNorth (360°)11.5 mphMostly Cloudy
9:51 PM73.4 °F71.6 °F94 %30.08 in7.0 miNorth (360°)12.7 mphMostly Cloudy
10:40 PM73.4 °F73.4 °F100 %30.05 in7.0 miNNE (20°)9.2 mphMostly Cloudy
11:40 PM73.4 °F73.4 °F100 %30.05 in7.0 miNorth (360°)10.4 mphMostly Cloudy
Hourly data recorded from MMCZ, located miles away from Cozumel, Quintana Roo







STORIES FROM OUR PARTNERS